K3RTA Weather Reports


time (UTC)temp
C
wind
direction
speed
KPH
gust
KPH
rain 1hr
cm
rain 24hr
cm
rain mn
cm
humidity
%
barometer
mb
20260510190004 26 252 0.0 0.0 0.00 0.00 0.00 46 1011.2
20260510185004 27 130 0.0 3.2 0.00 0.00 0.00 43 1011.1
20260510184004 27 274 0.0 3.2 0.00 0.00 0.00 42 1011.0
20260510183004 27 288 0.0 1.6 0.00 0.00 0.00 43 1011.0
20260510182004 27 285 0.0 3.2 0.00 0.00 0.00 42 1011.0
20260510181004 27 155 0.0 0.0 0.00 0.00 0.00 42 1011.0
20260510180004 26 280 0.0 3.2 0.00 0.00 0.00 42 1011.2
20260510175004 26 229 0.0 0.0 0.00 0.00 0.00 43 1011.3
20260510173004 26 209 0.0 0.0 0.00 0.00 0.00 45 1011.3
20260510172004 26 313 0.0 3.2 0.00 0.00 0.00 45 1011.2
20260510171004 26 257 0.0 1.6 0.00 0.00 0.00 44 1011.3
20260510170004 26 135 0.0 1.6 0.00 0.00 0.00 46 1011.4
20260510165003 25 141 0.0 1.6 0.00 0.00 0.00 49 1011.4
20260510164004 25 322 0.0 0.0 0.00 0.00 0.00 49 1011.3
20260510163004 26 281 0.0 0.0 0.00 0.00 0.00 50 1011.3
20260510162004 25 306 0.0 0.0 0.00 0.00 0.00 51 1011.3
20260510161004 24 299 0.0 1.6 0.00 0.00 0.00 52 1011.5
20260510160004 24 250 0.0 1.6 0.00 0.00 0.00 53 1011.5
20260510155004 24 305 0.0 1.6 0.00 0.00 0.00 52 1011.5
20260510154004 23 285 0.0 3.2 0.00 0.00 0.00 52 1011.6
20260510153004 23 255 0.0 0.0 0.00 0.00 0.00 57 1011.6
20260510152004 23 191 0.0 4.8 0.00 0.00 0.00 59 1011.7
20260510151003 23 291 0.0 0.0 0.00 0.00 0.00 58 1011.7
20260510150004 22 276 0.0 0.0 0.00 0.00 0.00 59 1011.4
20260510145004 22 233 0.0 0.0 0.00 0.00 0.00 59 1011.4
20260510144004 21 290 0.0 0.0 0.00 0.00 0.00 63 1011.6
20260510143004 21 246 0.0 0.0 0.00 0.00 0.00 64 1011.5
20260510142004 20 284 0.0 0.0 0.00 0.00 0.00 69 1011.8
20260510141004 20 284 0.0 0.0 0.00 0.00 0.00 70 1011.8
20260510140005 20 269 0.0 0.0 0.00 0.00 0.00 72 1011.8
20260510134004 18 78 0.0 0.0 0.00 0.00 0.00 76 1011.7
20260510133004 17 200 0.0 0.0 0.00 0.00 0.00 79 1011.9
20260510131004 15 281 0.0 0.0 0.00 0.00 0.00 84 1011.9
20260510130004 15 31 0.0 0.0 0.00 0.00 0.00 85 1011.9
20260510125004 13 245 0.0 0.0 0.00 0.00 0.00 87 1011.9
20260510123004 13 245 0.0 0.0 0.00 0.00 0.00 88 1011.9
20260510122004 12 255 0.0 0.0 0.00 0.00 0.00 88 1011.8
20260510121003 12 130 0.0 0.0 0.00 0.00 0.00 87 1011.5
20260510120004 12 146 0.0 0.0 0.00 0.00 0.00 87 1011.5
20260510115004 11 138 0.0 0.0 0.00 0.00 0.00 87 1011.3
20260510114004 11 101 0.0 0.0 0.00 0.00 0.00 87 1011.3
20260510113005 11 6 0.0 0.0 0.00 0.00 0.00 87 1011.3
20260510112004 11 297 0.0 0.0 0.00 0.00 0.00 87 1011.2
20260510111004 10 290 0.0 0.0 0.00 0.00 0.00 87 1010.9
20260510110005 10 290 0.0 0.0 0.00 0.00 0.00 87 1010.8
20260510105003 10 290 0.0 0.0 0.00 0.00 0.00 87 1010.7
20260510104004 10 290 0.0 0.0 0.00 0.00 0.00 87 1010.6
20260510103004 10 290 0.0 0.0 0.00 0.00 0.00 87 1010.3
20260510102004 10 290 0.0 0.0 0.00 0.00 0.00 87 1010.2
20260510100004 10 290 0.0 0.0 0.00 0.00 0.00 88 1010.2
20260510095004 10 290 0.0 0.0 0.00 0.00 0.00 88 1010.1
20260510094004 10 289 0.0 0.0 0.00 0.00 0.00 87 1010.0
20260510093004 10 288 0.0 0.0 0.00 0.00 0.00 87 1010.0
20260510092004 10 134 0.0 0.0 0.00 0.00 0.00 87 1009.8
20260510091004 10 282 0.0 0.0 0.00 0.00 0.00 87 1009.9
20260510090004 10 295 0.0 0.0 0.00 0.00 0.00 87 1010.0
20260510085004 10 83 0.0 0.0 0.00 0.00 0.00 87 1009.6
20260510084004 10 127 0.0 0.0 0.00 0.00 0.00 87 1009.5
20260510083004 9 127 0.0 0.0 0.00 0.00 0.00 87 1009.4
20260510081004 10 127 0.0 0.0 0.00 0.00 0.00 88 1009.2
20260510080004 10 127 0.0 0.0 0.00 0.00 0.00 87 1009.2
20260510075004 10 127 0.0 0.0 0.00 0.00 0.00 87 1009.2
20260510074004 10 127 0.0 0.0 0.00 0.00 0.00 87 1009.2
20260510073004 10 128 0.0 0.0 0.00 0.00 0.00 87 1009.1
20260510072004 10 128 0.0 0.0 0.00 0.00 0.00 88 1009.0
20260510071004 10 128 0.0 0.0 0.00 0.00 0.00 88 1008.7
20260510070005 10 128 0.0 0.0 0.00 0.00 0.00 88 1008.6
20260510065004 10 128 0.0 0.0 0.00 0.00 0.00 88 1008.6
20260510064004 10 128 0.0 0.0 0.00 0.00 0.00 88 1008.6
20260510061004 10 128 0.0 0.0 0.00 0.00 0.00 88 1008.9
20260510060004 10 128 0.0 0.0 0.00 0.00 0.00 87 1008.9
20260510055004 10 128 0.0 0.0 0.00 0.00 0.00 87 1009.0
20260510054003 10 128 0.0 0.0 0.00 0.00 0.00 88 1009.0
20260510053004 10 128 0.0 0.0 0.00 0.00 0.00 88 1009.0
20260510052004 10 128 0.0 0.0 0.00 0.00 0.00 88 1009.1
20260510051004 10 128 0.0 0.0 0.00 0.00 0.00 88 1009.2
20260510050006 11 128 0.0 0.0 0.00 0.00 0.00 88 1009.2
20260510045007 11 128 0.0 0.0 0.00 0.00 0.00 88 1009.2
20260510044007 11 128 0.0 0.0 0.00 0.00 0.00 88 1009.3
20260510043006 11 128 0.0 0.0 0.00 0.00 0.00 88 1009.4
20260510042007 11 128 0.0 0.0 0.00 0.00 0.00 88 1009.3
20260510041007 11 128 0.0 0.0 0.00 0.00 0.00 88 1009.3
20260510035007 11 128 0.0 0.0 0.00 0.00 0.00 88 1009.4
20260510034007 11 128 0.0 0.0 0.00 0.00 0.00 88 1009.3
20260510033006 11 128 0.0 11.3 0.00 0.00 0.00 88 1009.2
20260510032007 11 128 0.0 0.0 0.00 0.00 0.00 88 1009.2
20260510031007 11 128 0.0 1.6 0.00 0.00 0.00 88 1009.1
20260510030006 11 128 0.0 8.0 0.00 0.00 0.00 88 1009.0
20260510025006 11 128 0.0 3.2 0.00 0.00 0.00 88 1008.9
20260510024007 11 128 0.0 32.2 0.00 0.00 0.00 88 1009.0
20260510023007 12 128 0.0 101.4 0.00 0.00 0.00 88 1008.9
20260510022006 12 128 46.7 194.7 0.00 0.00 0.00 88 1008.9
20260510021007 12 128 0.0 1.6 0.00 0.00 0.00 87 1009.0
20260510020007 12 128 0.0 1.6 0.00 0.00 0.00 87 1008.9
20260510015007 12 128 0.0 0.0 0.00 0.00 0.00 87 1008.8
20260510014006 12 128 0.0 4.8 0.00 0.00 0.00 86 1008.7
20260510013007 12 128 0.0 4.8 0.00 0.00 0.00 86 1008.6
20260510012007 13 128 1.6 4.8 0.00 0.00 0.00 85 1008.5
20260510011006 13 128 0.0 0.0 0.00 0.00 0.00 85 1008.5
20260510010006 13 128 0.0 0.0 0.00 0.00 0.00 84 1008.4
20260510004007 14 128 0.0 0.0 0.00 0.00 0.00 82 1008.4
20260510002006 15 128 0.0 0.0 0.00 0.00 0.00 79 1008.3
20260510001007 15 128 0.0 0.0 0.00 0.00 0.00 78 1008.3
20260510000007 15 128 0.0 0.0 0.00 0.00 0.00 77 1008.4
20260509235007 16 128 0.0 0.0 0.00 0.00 0.00 76 1008.3
20260509234006 16 80 0.0 0.0 0.00 0.00 0.00 75 1008.2
20260509232007 17 75 0.0 0.0 0.00 0.00 0.00 73 1008.1
20260509231006 17 66 0.0 0.0 0.00 0.00 0.00 73 1008.1
20260509225007 17 18 0.0 0.0 0.00 0.00 0.00 72 1008.0
20260509224007 17 140 0.0 0.0 0.00 0.00 0.00 72 1008.0
20260509222007 17 39 0.0 0.0 0.00 0.00 0.00 72 1008.2
20260509221007 16 124 0.0 1.6 0.00 0.00 0.00 73 1008.1
20260509220007 16 37 0.0 0.0 0.00 0.00 0.00 73 1008.1
20260509215006 16 35 0.0 19.3 0.00 0.00 0.00 72 1008.1
20260509214006 16 58 0.0 0.0 0.00 0.00 0.00 72 1008.0
20260509213006 17 134 0.0 0.0 0.00 0.00 0.00 72 1008.0
20260509212007 17 40 0.0 29.0 0.00 0.00 0.00 71 1008.0
20260509211007 17 19 0.0 0.0 0.00 0.00 0.00 69 1007.9
20260509210006 17 31 0.0 0.0 0.00 0.00 0.00 69 1008.1
20260509205007 17 273 0.0 25.7 0.00 0.00 0.00 69 1008.0
20260509204007 17 335 0.0 0.0 0.00 0.00 0.00 69 1008.1
20260509203006 17 47 0.0 0.0 0.00 0.00 0.00 69 1008.1
20260509201006 17 268 0.0 0.0 0.00 0.00 0.00 69 1008.1
20260509200006 17 34 0.0 0.0 0.00 0.00 0.00 69 1008.2
20260509195007 17 47 0.0 27.4 0.00 0.00 0.00 69 1008.2
20260509194007 17 45 0.0 1.6 0.00 0.00 0.00 69 1008.3
20260509193006 18 48 0.0 0.0 0.00 0.00 0.00 68 1008.1
20260509192006 17 23 0.0 24.1 0.00 0.00 0.00 68 1008.3